Regional Weather Roundup
Issued by NWS

Home | Current Version | Previous Version | Text Only | Print | Product List | Glossary On
Versions: 1 2 3 4 5 6 7 8 9 10 11 12 13 14 15 16 17 18 19 20 21 22 23 24 25 26 27 28 29 30 31 32 33 34 35 36 37 38 39 40 41 42 43 44 45 46 47 48 49 50
598
ASUS43 KDTX 270201
RWRMI
MICHIGAN HOURLY REGIONAL WEATHER ROUNDUP
NATIONAL WEATHER SERVICE DETROIT/PONTIAC MI
1000 PM EDT MON JUN 26 2017

NOTE: "FAIR" INDICATES FEW OR NO CLOUDS BELOW 12,000 FEET WITH NO
SIGNIFICANT WEATHER AND/OR OBSTRUCTION TO VISIBILITY.

MIZ047>049-052>055-059>063-066>070-074>076-081>083-270300-
SOUTHEAST LOWER MICHIGAN

CITY           SKY/WX    TMP DP  RH WIND       PRES   REMARKS
ADRIAN         MOCLDY    61  48  62 W6        30.00R
ALMA           PTCLDY    55  45  71 W7G17     29.98R
ANN ARBOR      CLOUDY    57  49  74 W8        29.98R
BAD AXE        PTCLDY    56  47  71 W3        29.94S
CARO           PTCLDY    56  48  73 SW3       29.95S
DETROIT CITY   CLOUDY    61  45  55 NW14G22   29.97R
DETROIT        LGT RAIN  61  47  59 NW10G18   29.98R
FLINT          CLOUDY    56  45  66 W9        29.97S
GROSSE ILE     MOCLDY    63  46  55 SW8       29.96R
HILLSDALE      CLOUDY    57  43  58 NW14G20   30.01R
HOWELL         CLOUDY    54  47  78 W6        29.98S

CITY           SKY/WX    TMP DP  RH WIND       PRES   REMARKS
JACKSON        CLOUDY    56  42  59 W8        30.01R
LAMBERTVILLE   PTCLDY    60  48  64 SW6       29.99R
LANSING        PTCLDY    57  42  57 W10       30.00R
LAPEER         CLOUDY    59  44  57 W6        29.97R
MASON          PTCLDY    56  45  65 W8        30.00R
MONROE         MOCLDY    61  47  60 SW10      29.97R
MT. CLEMENS    MOCLDY    61  45  55 SW7G21    29.94R
PONTIAC        CLOUDY    55  48  77 W6        29.96S
PORT HOPE        N/A     59  44  57 W8        29.92S
PORT HURON     PTCLDY    54  46  76 CALM      29.95R
TRI CITIES     MOCLDY    58  48  69 W9        29.97R
MIDLAND        FAIR      56  45  65 W3        29.95S
TROY           LGT RAIN  57  49  76 S5        30.00R
SAGINAW HB     PTCLDY    55  45  67 SW6       29.96R
$$
MIZ043>046-050>051-056>058-064>065-071>073-077>080-270300-
SOUTHWEST LOWER MICHIGAN

CITY           SKY/WX    TMP DP  RH WIND       PRES   REMARKS
BATTLE CREEK   CLEAR     55  45  68 W8        30.02S
BENTON HARBOR  CLEAR     60  45  57 NW6       30.04R
BIG RAPIDS     MOCLDY    53  45  74 W7        29.98S
COLDWATER      PTCLDY    57  41  54 NW7       30.02R
FREMONT        FAIR      53  47  82 CALM      30.00S
HOLLAND        PTCLDY    58  47  66 NW5       30.02F
GRAND RAPIDS   PTCLDY    56  46  69 NW10      30.00S
IONIA          FAIR      55  44  67 W8        30.00R
KALAMAZOO      CLEAR     56  43  61 W6        30.03S
LUDINGTON      CLOUDY    54  51  90 N8        30.00S
MARSHALL       CLEAR     54  43  67 W6        30.01S
MOUNT PLEASANT PTCLDY    55  44  67 W6        29.97R
MUSKEGON       MOCLDY    57  49  74 NW7       30.01S
SOUTH HAVEN    CLEAR     58  48  70 NW5       30.03S
$$
MIZ016>042-270300-
NORTHERN LOWER MICHIGAN

CITY           SKY/WX    TMP DP  RH WIND       PRES   REMARKS
ALPENA         CLOUDY    54  54 100 W5        29.93S
BEAVER ISLAND  MOCLDY    54  47  77 NW3       29.98S
BELLAIRE       CLOUDY    53  50  90 CALM      29.98S
CADILLAC       RAIN      52  50  94 NW7       29.98R
CHARLEVOIX     CLOUDY    54  48  81 NW8       30.00S
FRANKFORT      PTCLDY    53  50  89 CALM      30.00S
GAYLORD        LGT RAIN  51  47  86 N7        29.97R
GRAYLING       LGT RAIN  51  49  93 NW13      29.97R
HARBOR SPRINGS CLOUDY    52  52  99 NW3       29.96S
HOUGHTON LAKE  LGT RAIN  53  49  86 W14G23    29.96S FOG
MANISTEE       CLOUDY    54  52  93 N6        30.00S
OSCODA         CLOUDY    58  46  65 W8        29.93R
PELLSTON       CLOUDY    53  48  83 NW7       29.96S
ROGERS CITY    RAIN      52  48  87 NW15G23   29.95R
TRAVERSE CITY  CLOUDY    54  49  83 N6        29.98R
$$
MIZ007>008-015-270300-
EASTERN UPPER MICHIGAN

CITY           SKY/WX    TMP DP  RH WIND       PRES   REMARKS
KINROSS        CLOUDY    48  43  82 NW12      29.95S
MACKINAC ISLAN CLOUDY    51  48  92 NW10G17   29.95S
NEWBERRY       PTCLDY    47  46  95 W5        29.96S
S. S. MARIE    PTCLDY    50  43  77 W7        29.94S
MUNISING         N/A     53  47  79 CALM      29.97S
$$
MIZ004>006-011>014-085-270300-
CENTRAL UPPER MICHIGAN

CITY           SKY/WX    TMP DP  RH WIND       PRES   REMARKS
MANISTIQUE     CLEAR     49  44  81 NW3       29.98S
ESCANABA       CLEAR     55  46  71 W3        29.99S
MENOMINEE      CLEAR     55  51  86 CALM      30.01F
SAWYER-GWINN   CLEAR     55  46  71 NW3       29.99F
$$
MIZ001>003-009>011-084-270300-
WESTERN UPPER MICHIGAN

CITY           SKY/WX    TMP DP  RH WIND       PRES   REMARKS
IRON MOUNTAIN  CLEAR     53  47  79 CALM      29.99F
HOUGHTON       PTCLDY    54  45  71 W12       29.98F
COPPER HARBOR    N/A     57  46  66 NW6       29.96S
IRONWOOD       CLEAR     54  48  80 W7        30.04S
$$

ABBREVIATIONS USED IN REMARKS
   TC - TEMPERATURE IN CELSIUS
  WCI - WIND CHILL INDEX
   HX - HEAT INDEX
  VSB - VISIBILITY





USA.gov is the U.S. government's official web portal to all federal, state and local government web resources and services.